Tracking 35048 objects as of 19-Aug-2026
HD Live streaming from Space Station
objects crossing your sky now

WARATAH SEED-1

Track WARATAH SEED-1 now!
10-day predictions
WARATAH SEED-1 is classified as:


NORAD ID: 60469
Int'l Code: 2024-149B
Launch date: August 16, 2024
Source: Australia (AUS)
Launch site: AIR FORCE WESTERN TEST RANGE (AFWTR)

Uplink (MHz):
Downlink (MHz): 400.650
Beacon (MHz):
Mode: 1k2 BPSK
Call sign: VK2USY
Status: Unknown

Your satellite tracking list
Your tracking list is empty




NASA's NSSDC Master Catalog

Two Line Element Set (TLE):
1 60469U 24149B   26230.75401281  .00012315  00000-0  33845-3 0  9994
2 60469  97.3652 311.4410 0002195  53.7218 306.4229 15.37354179111729
Source of the keplerian elements: AFSPC